Regional Weather Roundup
Issued by NWS

Home | Current Version | Previous Version | Text Only | Print | Product List | Glossary Off
Versions: 1 2 3 4 5 6 7 8 9 10 11 12 13 14 15 16 17 18 19 20 21 22 23 24 25 26 27 28 29 30 31 32 33 34 35 36 37 38 39 40 41 42 43 44 45 46 47 48 49 50

000
ASUS43 KFSD 011202
RWRSD

WEATHER ROUNDUP FOR SOUTH DAKOTA
NATIONAL WEATHER SERVICE SIOUX FALLS SD
600 AM CST SUN MAR 01 2015

NOTE: "FAIR" INDICATES FEW OR NO CLOUDS BELOW 12,000 FEET WITH NO
SIGNIFICANT WEATHER AND/OR OBSTRUCTIONS TO VISIBILITY.


SDZ001>005-009-010-012>017-011300-
NORTHWEST AND NORTH CENTRAL SOUTH DAKOTA

CITY           SKY/WX    TMP DP  RH WIND       PRES   REMARKS
BUFFALO          N/A     11   6  81 W12       30.09R WCI  -3
FAITH            N/A     13   5  70 W13       30.18S WCI  -2
MOBRIDGE       CLEAR      3  -2  79 CALM      30.19R
$$

SDZ012>016-024>037-041>051-057-063-072>074-011300-
SOUTHWEST AND SOUTH CENTRAL SOUTH DAKOTA

CITY           SKY/WX    TMP DP  RH WIND       PRES   REMARKS
RAPID CTY ARPT CLEAR      9   6  88 CALM      30.22R
PIERRE         MOCLDY    12   4  70 W8        30.26R WCI   0
CUSTER         CLEAR      6   2  83 SW5       30.05R WCI  -3
ELLSWORTH AFB  PTCLDY    11   6  79 SW3       30.20R
PHILIP         PTCLDY    12   6  77 W7        30.27R WCI   1
PINE RIDGE     CLOUDY    15  11  83 SW3       30.23R
WINNER         CLOUDY    18  11  74 W9        30.28R WCI   7
$$

SDZ004>011-016>023-039-040-011300-
NORTHEAST SOUTH DAKOTA

CITY           SKY/WX    TMP DP  RH WIND       PRES   REMARKS
ABERDEEN       PTCLDY     0  -5  79 SW8       30.25R WCI -14
WATERTOWN      PTCLDY     1  -3  83 SW12      30.22R WCI -16
SISSETON         N/A      7   1  76 W8        30.23  WCI  -6
$$

SDZ017-020-022-023-036>040-048>070-011300-
SOUTHEAST SOUTH DAKOTA

CITY           SKY/WX    TMP DP  RH WIND       PRES   REMARKS
SIOUX FALLS    PTCLDY     9   7  92 CALM      30.28R
HURON          MOCLDY     5   1  83 SW5       30.29S WCI  -4
MITCHELL       CLOUDY    13   7  77 SW6       30.31R WCI   4
YANKTON        PTCLDY    14   9  79 W7        30.33R WCI   4
$$

ABBREVIATIONS USED IN REMARKS
   TC - TEMPERATURE IN CELSIUS
  WCI - WIND CHILL INDEX
   HX - HEAT INDEX
  VSB - VISIBILITY




USA.gov is the U.S. government's official web portal to all federal, state and local government web resources and services.